Weather History for Newark Heath, OH

Change the Weather History Date:

Tuesday, November 26, 2013

  Actual Average Record
Temperature  
Mean Temperature 32 °F -  
Max Temperature 35 °F 51 °F 68 °F (1990)
Min Temperature 30 °F 30 °F 12 °F (1938)
Degree Days  
Heating Degree Days 32    
Moisture  
Dew Point 29 °F    
Average Humidity 88    
Maximum Humidity 93    
Minimum Humidity 78    
Precipitation  
Precipitation 0.25 in - - ()
Sea Level Pressure  
Sea Level Pressure 30.00 in    
Wind  
Wind Speed 3 mph (NNW)    
Max Wind Speed 9 mph    
Max Gust Speed -    
Visibility 3 miles    
Events Rain , Snow    
Averages and records for this station are not official NWS values.
T = Trace of Precipitation, MM = Missing Value Source: NWS Daily Summary

Daily Weather History Graph

Daily Weather History Graph

Search for Another Location

Airport:

Trip Planner

Search our weather history database for the weather conditions in past years. The results will help you decide how hot, cold, wet, or windy it might be!

Date:

Astronomy

Nov. 26, 2013 Rise Set
Actual Time 7:27 AM EST 5:06 PM EST
Civil Twilight 6:57 AM EST 5:36 PM EST
Nautical Twilight 6:24 AM EST 6:09 PM EST
Astronomical Twilight 5:51 AM EST 6:42 PM EST
Moon 12:30 AM EST (11/26) 1:12 PM EST (11/26)
Length of Visible Light 10h 38m
Length of Day
9h 39m
Last Quarter, 41% of the Moon is Illuminated
Nov 26
Last Quarter
Dec 2
New
Dec 9
First Quarter
Dec 17
Full
Dec 25
Last Quarter

Hourly Weather History & Observations

Time (EST) Temp. Windchill Dew Point Humidity Pressure Visibility Wind Dir Wind Speed Gust Speed Precip Events Conditions
12:54 AM 33.1 °F 26.9 °F 27.0 °F 78% 30.21 in 10.0 mi WSW 6.9 mph - N/A   Overcast
1:54 AM 32.0 °F 26.4 °F 28.0 °F 85% 30.22 in 7.0 mi WSW 5.8 mph - N/A   Overcast
2:22 AM 32.0 °F - 28.4 °F 87% 30.18 in 2.5 mi Calm Calm - 0.00 in Snow Light Snow
2:33 AM 32.0 °F - 28.4 °F 87% 30.18 in 1.5 mi Calm Calm - 0.00 in Snow Light Snow
2:52 AM 32.0 °F 28.7 °F 28.4 °F 87% 30.18 in 1.2 mi South 3.5 mph - 0.01 in Snow Light Snow
2:54 AM 32.0 °F 28.7 °F 28.9 °F 88% 30.20 in 1.2 mi South 3.5 mph - 0.01 in Snow Light Snow
3:12 AM 32.0 °F - 28.4 °F 87% 30.18 in 2.0 mi Calm Calm - 0.00 in Snow Light Snow
3:28 AM 32.0 °F 28.7 °F 28.4 °F 87% 30.16 in 2.5 mi South 3.5 mph - 0.00 in Snow Light Snow
3:45 AM 32.0 °F 27.5 °F 28.4 °F 87% 30.17 in 2.5 mi SSW 4.6 mph - 0.00 in Snow Light Snow
3:54 AM 32.0 °F 28.7 °F 28.9 °F 88% 30.20 in 2.5 mi SSW 3.5 mph - 0.00 in Snow Light Snow
4:10 AM 32.0 °F 28.7 °F 28.4 °F 87% 30.16 in 3.0 mi SW 3.5 mph - 0.00 in   Overcast
4:54 AM 32.0 °F - 30.0 °F 92% 30.17 in 4.0 mi Calm Calm - 0.00 in Snow Light Snow
5:54 AM 32.0 °F 28.7 °F 28.9 °F 88% 30.16 in 6.0 mi South 3.5 mph - 0.00 in   Overcast
6:54 AM 32.0 °F 27.5 °F 28.9 °F 88% 30.16 in 7.0 mi South 4.6 mph - N/A   Overcast
7:18 AM 32.0 °F - 28.4 °F 87% 30.12 in 8.0 mi Calm Calm - N/A   Overcast
7:54 AM 32.0 °F - 28.9 °F 88% 30.14 in 5.0 mi Calm Calm - N/A   Overcast
8:40 AM 32.0 °F 28.7 °F 30.2 °F 93% 30.10 in 5.0 mi SSE 3.5 mph - N/A   Overcast
8:51 AM 33.8 °F - 30.2 °F 87% 30.11 in 5.0 mi Calm Calm - N/A   Overcast
8:54 AM 33.1 °F - 28.9 °F 85% 30.14 in 6.0 mi Calm Calm - N/A   Overcast
9:10 AM 33.8 °F 30.8 °F 28.4 °F 81% 30.10 in 6.0 mi South 3.5 mph - N/A   Overcast
9:54 AM 33.1 °F 30.0 °F 30.0 °F 89% 30.11 in 3.0 mi SE 3.5 mph - N/A   Overcast
9:59 AM 33.8 °F - 30.2 °F 87% 30.09 in 1.8 mi Calm Calm - 0.00 in Snow Light Snow
10:23 AM 33.8 °F - 30.2 °F 87% 30.10 in 1.0 mi Calm Calm - 0.01 in Snow Light Snow
10:54 AM 33.1 °F - 30.0 °F 89% 30.11 in 1.2 mi Calm Calm - 0.02 in Snow Light Snow
11:54 AM 33.1 °F - 30.0 °F 89% 30.07 in 1.5 mi Calm Calm - 0.01 in Snow Light Snow
12:02 PM 33.8 °F - 30.2 °F 87% 30.04 in 2.0 mi Calm Calm - 0.00 in Snow Light Snow
12:08 PM 33.8 °F - 30.2 °F 87% 30.03 in 3.0 mi Calm Calm - 0.00 in   Overcast
12:23 PM 33.8 °F - 30.2 °F 87% 30.03 in 2.5 mi Calm Calm - 0.00 in Snow Light Snow
12:32 PM 33.8 °F - 30.2 °F 87% 30.04 in 3.0 mi Calm Calm - 0.00 in Snow Light Snow
12:54 PM 33.1 °F - 30.0 °F 89% 30.05 in 4.0 mi Calm Calm - 0.00 in   Overcast
1:03 PM 33.8 °F - 30.2 °F 87% 30.02 in 4.0 mi Calm Calm - N/A   Overcast
1:24 PM 33.8 °F - 30.2 °F 87% 29.99 in 5.0 mi Calm Calm - N/A   Overcast
1:54 PM 35.1 °F - 30.0 °F 82% 29.99 in 7.0 mi Calm Calm - N/A   Overcast
2:08 PM 35.6 °F 32.8 °F 30.2 °F 81% 29.96 in 6.0 mi NE 3.5 mph - N/A   Overcast
2:54 PM 35.1 °F 32.2 °F 30.0 °F 82% 29.97 in 5.0 mi NNE 3.5 mph - 0.00 in   Overcast
3:00 PM 33.8 °F 29.6 °F 30.2 °F 87% 29.94 in 2.5 mi North 4.6 mph - 0.00 in Snow Light Snow
3:05 PM 33.8 °F 30.8 °F 30.2 °F 87% 29.94 in 1.8 mi North 3.5 mph - 0.01 in Snow Light Snow
3:12 PM 33.8 °F 30.8 °F 30.2 °F 87% 29.93 in 1.2 mi North 3.5 mph - 0.01 in Snow Light Snow
3:24 PM 33.8 °F 30.8 °F 30.2 °F 87% 29.93 in 1.0 mi NNE 3.5 mph - 0.01 in Snow Light Snow
3:30 PM 33.8 °F 29.6 °F 30.2 °F 87% 29.93 in 0.8 mi NNE 4.6 mph - 0.02 in Snow Light Snow
3:44 PM 33.8 °F 29.6 °F 30.2 °F 87% 29.92 in 1.0 mi North 4.6 mph - 0.03 in Snow Light Snow
3:54 PM 33.1 °F 30.0 °F 30.9 °F 92% 29.95 in 1.8 mi NNE 3.5 mph - 0.03 in Rain Light Rain
4:01 PM 33.8 °F 30.8 °F 30.2 °F 87% 29.93 in 2.5 mi North 3.5 mph - 0.01 in Rain Light Rain
4:16 PM 33.8 °F 29.6 °F 30.2 °F 87% 29.92 in 2.5 mi North 4.6 mph - 0.02 in Snow Light Snow
4:24 PM 33.8 °F 29.6 °F 30.2 °F 87% 29.92 in 1.8 mi North 4.6 mph - 0.02 in Snow Light Snow
4:44 PM 33.8 °F 30.8 °F 30.2 °F 87% 29.91 in 0.8 mi NNE 3.5 mph - 0.03 in Snow Light Snow
4:54 PM 33.1 °F - 30.0 °F 89% 29.95 in 0.8 mi Calm Calm - 0.04 in Snow Light Snow
5:09 PM 33.8 °F - 30.2 °F 87% 29.93 in 1.0 mi Calm Calm - 0.01 in Snow Light Snow
5:33 PM 33.8 °F - 30.2 °F 87% 29.92 in 1.8 mi Calm Calm - 0.02 in Snow Light Snow
5:54 PM 33.1 °F 30.0 °F 30.0 °F 89% 29.91 in 1.2 mi NNE 3.5 mph - 0.03 in Snow Light Snow
6:46 PM 33.8 °F 29.6 °F 30.2 °F 87% 29.90 in 1.8 mi North 4.6 mph - 0.03 in Snow Light Snow
6:54 PM 32.0 °F 27.5 °F 30.0 °F 92% 29.91 in 2.0 mi NNW 4.6 mph - 0.03 in Snow Light Snow
7:26 PM 32.0 °F 26.4 °F 28.4 °F 87% 29.88 in 2.5 mi North 5.8 mph - 0.00 in Snow Light Snow
7:36 PM 32.0 °F 26.4 °F 28.4 °F 87% 29.88 in 2.0 mi North 5.8 mph - 0.01 in Snow Light Snow
7:44 PM 32.0 °F 25.6 °F 28.4 °F 87% 29.88 in 1.5 mi NNW 6.9 mph - 0.01 in Snow Light Snow
7:54 PM 32.0 °F 25.6 °F 28.9 °F 88% 29.91 in 1.2 mi NNW 6.9 mph - 0.02 in Snow Light Snow
8:02 PM 32.0 °F 26.4 °F 28.4 °F 87% 29.88 in 1.0 mi NNW 5.8 mph - 0.01 in Snow Light Snow
8:14 PM 32.0 °F 27.5 °F 30.2 °F 93% 29.88 in 0.8 mi NNW 4.6 mph - 0.02 in Snow Light Snow
8:26 PM 32.0 °F 24.8 °F 28.4 °F 87% 29.88 in 1.0 mi NNW 8.1 mph - 0.03 in Snow Light Snow
8:36 PM 32.0 °F 24.2 °F 28.4 °F 87% 29.87 in 1.2 mi NNW 9.2 mph - 0.04 in Snow Light Snow
8:54 PM 30.9 °F 24.3 °F 28.9 °F 92% 29.90 in 1.5 mi NNW 6.9 mph - 0.04 in Snow Light Snow
9:04 PM 30.2 °F 23.4 °F 28.4 °F 93% 29.88 in 1.8 mi NNW 6.9 mph - 0.01 in Snow Light Snow
9:11 PM 30.2 °F 22.6 °F 28.4 °F 93% 29.88 in 2.0 mi NNW 8.1 mph - 0.01 in Snow Light Snow
9:34 PM 30.2 °F 23.4 °F 28.4 °F 93% 29.87 in 4.0 mi NNW 6.9 mph - 0.01 in Snow Light Snow
9:45 PM 30.2 °F 24.3 °F 28.4 °F 93% 29.87 in 6.0 mi NNW 5.8 mph - 0.01 in   Overcast
9:54 PM 30.9 °F 24.3 °F 28.0 °F 89% 29.90 in 7.0 mi NW 6.9 mph - 0.01 in   Overcast
10:31 PM 30.2 °F 22.6 °F 28.4 °F 93% 29.86 in 2.5 mi NNW 8.1 mph - 0.00 in Snow Light Snow
10:42 PM 30.2 °F 23.4 °F 26.6 °F 86% 29.86 in 2.0 mi NW 6.9 mph - 0.00 in Snow Light Snow
10:54 PM 30.9 °F 26.2 °F 27.0 °F 85% 29.88 in 2.5 mi NNW 4.6 mph - 0.01 in Snow Light Snow
10:56 PM 30.2 °F 24.3 °F 26.6 °F 86% 29.86 in 3.0 mi NNW 5.8 mph - 0.00 in Snow Light Snow
11:54 PM 30.9 °F 25.2 °F 27.0 °F 85% 29.88 in 6.0 mi NW 5.8 mph - 0.00 in   Overcast